Regional Weather Roundup
Issued by NWS Columbia, SC

Home | Current Version | Previous Version | Text Only | Print | Product List | Glossary On
Versions: 1 2 3 4 5 6 7 8 9 10 11 12 13 14 15 16 17 18 19 20 21 22 23 24 25 26 27 28 29 30 31 32 33 34 35 36 37 38 39 40 41 42 43 44 45 46 47 48 49 50
000
ASUS42 KCAE 292310
RWRCAE
REGIONAL WEATHER ROUNDUP
NATIONAL WEATHER SERVICE COLUMBIA SC
700 PM EDT FRI MAY 29 2015

NOTE: "FAIR" INDICATES FEW OR NO CLOUDS BELOW 12,000 FEET WITH NO
SIGNIFICANT WEATHER AND/OR OBSTRUCTIONS TO VISIBILITY.

NOT ALL STATIONS ARE QUALITY CONTROLLED BY THE NATIONAL
WEATHER SERVICE. USE DATA WITH CAUTION...ESPECIALLY
DEWPOINT OBSERVATIONS.

SCZ001>056-GAZ040-063>065-077-300000-
...UPSTATE SOUTH CAROLINA...

CITY           SKY/WX    TMP DP  RH WIND       PRES   REMARKS
ANDERSON       PTSUNNY   82  56  40 SE6       30.15F
LIBERTY        PTCLDY    82  64  53 S5        30.15F
SPARTANBURG    MOSUNNY   82  63  51 S5        30.15F
CLEMSON        PTSUNNY   83  63  50 S3        30.16F
GREENVILLE     CLOUDY    82  61  48 SE7       30.17F
GREENWOOD      MOSUNNY   83  58  42 CALM      30.16F
GREER          MOSUNNY   80  63  55 S6        30.15F
ROCK HILL      MOSUNNY   84  61  45 SE6       30.15F
CHESTER        PTCLDY    86  54  32 SE6       30.15F
LAURENS        PTCLDY    82  68  61 S8        30.15S


...CENTRAL SOUTH CAROLINA...

CITY           SKY/WX    TMP DP  RH WIND       PRES   REMARKS
COLUMBIA APT   MOSUNNY   86  59  39 E13       30.12F
COLUMBIA OWENS SUNNY     86  59  39 SE6       30.14F
DARLINGTON     SUNNY     88  52  29 E7        30.15F
FLORENCE       SUNNY     85  62  46 S12       30.15R
MCENTIRE ANGB  MOSUNNY   82  66  58 SE13      30.15S
ORANGEBURG     PTSUNNY   81  62  52 SE8G20    30.15S
SUMTER SHAW    MOSUNNY   84  65  52 SE12G20   30.13S
AIKEN          FAIR      82  54  36 E6        30.17S
BARNWELL       FAIR      84  66  54 E10       30.14R
MANNING        FAIR      79  57  47 S5        30.16S
CAMDEN         FAIR      84  59  42 CALM      30.14F
LANCASTER      PTCLDY    84  55  37 SE8       30.14F
WINNSBORO      CLEAR     86  48  26 E5        30.15S


...EASTERN AND COASTAL SOUTH CAROLINA...

CITY           SKY/WX    TMP DP  RH WIND       PRES   REMARKS
MYRTLE BEACH   MOSUNNY   79  68  69 E14       30.19F
N MYRTLE BCH   SUNNY     78  69  73 E10       30.18S
CONWAY         FAIR      79  66  65 SE8       30.17S HAZE
MARION         FAIR     N/A N/A N/A SE6       30.16R
HARTSVILLE     FAIR      86  50  28 SE3       30.14S
FLORENCE       SUNNY     85  62  46 S12       30.15R
DARLINGTON     SUNNY     88  52  29 E7        30.15F
CHARLESTON APT MOSUNNY   78  67  68 E9        30.16F
MOUNT PLEASANT FAIR      79  70  73 E6        30.16S
WALTERBORO     PTCLDY    79  64  61 E7        30.16S
BEAUFORT       SUNNY     80  68  66 E15G23    30.15S


...EASTERN GEORGIA...

CITY           SKY/WX    TMP DP  RH WIND       PRES   REMARKS
AUGUSTA BUSH F MOSUNNY   85  59  41 S6        30.11F
AUGUSTA DANIEL MOSUNNY   86  57  37 S8        30.14S
THOMSON        MOSUNNY   86  61  42 CALM      30.18S
WASHINGTON     FAIR      86  64  48 E6        30.14S
CLAXTON        FAIR      82  64  54 SE8       30.12S
SYLVANIA       PTCLDY    86  68  55 SE6       30.13S
STATESBORO     MOSUNNY   84  68  58 SE6       30.12S
SAVANNAH       MOSUNNY   80  66  62 E16       30.14S


...SOUTHERN NORTH CAROLINA...

CITY           SKY/WX    TMP DP  RH WIND       PRES   REMARKS
CHARLOTTE      MOSUNNY   85  55  35 SE9       30.15F
MONROE         MOSUNNY   85  59  41 VRB3      30.14F
WADESBORO      CLEAR     87  43  21 SE10      30.14S
ROCKINGHAM     CLEAR     85  51  30 SE7       30.15S
RUTHERFORDTON  PTSUNNY   81  69  67 CALM      30.17S
ASHEVILLE      MOSUNNY   74  61  63 SW7       30.22S

$$


USA.gov is the U.S. government's official web portal to all federal, state and local government web resources and services.